Home > Weather > Kapfenberg > Past weeks

Flag for Austria Weather for the Past 2 Weeks in Kapfenberg, Styria, Austria

Now
27 °F

Passing clouds.


Feels Like: 27 °F
Forecast: 30 / 44 °F
Wind: 2 mph from North

Location: Zeltweg

Current Time: Feb 14, 2016 at 8:02:52 AM

Latest Report: Feb 14, 2016 at 6:50 AM


Visibility: 12 mi

Pressure: 29.33 "Hg (27.52 "Hg at 504m altitude)

Humidity: 86%

Dew point: 23 °F

Location of KapfenbergLocation

Historic Weather in Kapfenberg — Graph

°F

Kapfenberg Temperature Yesterday

Maximum temperature yesterday: 46 °F (at 3:20 PM)
Minimum temperature yesterday: 28 °F (at 4:50 AM)
Average temperature yesterday: 37 °F

High & Low Weather Summary for the Past Weeks

 TemperatureHumidityPressure
High57 °F (Feb 1, 1:50 PM)100% (Jan 30, 8:50 AM)30.33 "Hg (Jan 30, 8:50 AM)
Low19 °F (Feb 12, 4:50 AM)45% (Feb 4, 11:20 AM)29.27 "Hg (Feb 10, 6:50 AM)
Average37 °F78%29.87 "Hg
* Reported Jan 30 6:50 AM — Feb 14 6:50 AM, Kapfenberg, Weather by CustomWeather, © 2016

Note: Actual official high and low records may vary slightly from our data, if they occured in-between our weather recording intervals... More about our weather records

Advertising

Kapfenberg Weather History for the Previous 24 Hours

 ConditionsComfort  
Time TempWeatherWind HumidityBarometerVisibility
6:50 AM
Sun, Feb 14
27 °FPassing clouds.2 mph86%29.33 "Hg12 mi
5:50 AM27 °FPassing clouds.1 mph93%29.33 "Hg9 mi
4:50 AM28 °FPassing clouds.3 mph86%29.33 "Hg6 mi
9:50 PM
Sat, Feb 13
34 °FPassing clouds.7 mph81%29.30 "Hg6 mi
8:50 PM36 °FPassing clouds.8 mph81%29.30 "Hg9 mi
7:50 PM36 °FPartly cloudy.3 mph81%29.30 "Hg9 mi
6:50 PM37 °FPartly cloudy.2 mph70%29.30 "Hg9 mi
5:50 PM39 °FPassing clouds.2 mph65%29.30 "Hg12 mi
4:50 PM43 °FScattered clouds.6 mph57%29.30 "Hg19 mi
4:20 PM45 °FScattered clouds.9 mph57%29.30 "Hg19 mi
3:50 PM45 °FScattered clouds.5 mph57%29.30 "Hg19 mi
3:20 PM46 °FScattered clouds.5 mph53%29.30 "Hg19 mi
2:50 PM45 °FScattered clouds.7 mph61%29.30 "Hg19 mi
2:20 PM45 °FScattered clouds.5 mph61%29.30 "Hg19 mi
1:50 PM43 °FPassing clouds.3 mph66%29.30 "Hg19 mi
1:20 PM41 °FScattered clouds.3 mph66%29.30 "Hg19 mi
12:50 PM43 °FScattered clouds.2 mph61%29.33 "Hg19 mi
12:20 PM39 °FScattered clouds.2 mph65%29.33 "Hg19 mi
11:50 AM39 °FScattered clouds.2 mph61%29.33 "Hg19 mi
11:20 AM36 °FPassing clouds.2 mph75%29.36 "Hg16 mi
10:50 AM36 °FPassing clouds.1 mph81%29.36 "Hg12 mi
10:20 AM34 °FPassing clouds.1 mph81%29.36 "Hg9 mi
9:50 AM32 °FScattered clouds.1 mph87%29.36 "Hg9 mi
9:20 AM30 °FScattered clouds.1 mph93%29.36 "Hg7 mi
8:50 AM28 °FPartly sunny.3 mph100%29.36 "Hg6 mi
8:20 AM28 °FBroken clouds.2 mph100%29.36 "Hg6 mi
Weather by CustomWeather, © 2016

See weather overviewHow to use our weather pages